Location: Waco, TX
(31.5480°N, 97.1670°W)
Time: 15:13:06
(UTC-05:00)

ISS - Pass Details

Date: 13 September 2019
Orbit: 411 x 421 km, 51.6° (Epoch: 17 September)

Event Time Altitude Azimuth Distance (km) Brightness Sun altitude
Rises 06:15:31 0° 324° (NW) 2,351 - -12.6°
Exits shadow 06:15:31 - 324° (NW) 2,349 -0.2 -12.6°
Reaches altitude 10° 06:17:45 10° 334° (NNW) 1,488 -1.1 -12.1°
Maximum altitude 06:20:48 33° 40° (NE) 728 -2.0 -11.5°
Drops below altitude 10° 06:23:51 10° 106° (ESE) 1,487 0.1 -10.9°
Sets 06:26:04 0° 117° (ESE) 2,349 1.0 -10.4°
